Location: Andrest
(43.3200°N, 0.0641°E)
Time: 21:25:29
(UTC+00:00)

Meteor 1-5 Rocket - Pass Details

Date: 01 December 2020
Orbit: 788 x 916 km, 81.2° (Epoch: 20 January)

Event Time Altitude Azimuth Distance (km) Brightness Sun altitude
Rises 17:53:30 0° 353° (N) 3,546 7.3 -15.6°
Reaches altitude 10° 17:56:05 10° 359° (N) 2,589 6.6 -16.1°
Maximum altitude 18:01:51 53° 75° (ENE) 1,077 4.4 -17.1°
Drops below altitude 10° 18:07:25 10° 152° (SSE) 2,498 6.5 -18.1°
Sets 18:09:51 0° 157° (SSE) 3,411 7.3 -18.5°
